Content
SEND FEEDBACK

Daily
Averages
Monthly
Summary
United Kingdom

BLACKBURN, ENGLAND


Home > Europe > United Kingdom > England
Elevation: 250 feet     Latitude: 53 46N     Longitude: 002 34W

WEATHER
 
SELECT A DAY
Number of Records: 28,427;   Date Range: 7/1/96 - 7/23/14
 
SHARE

PRINT THIS DATA

[ ← Previous Day ]
WEATHER ALMANAC - OCTOBER 18, 2013
[ Next Day → ]
[ °C ]   °F
Weather ElementAverageHighLow
Temperature54.7 °F57.2 °F (12:50 pm)50 °F (3:50 am)
Dewpoint52.7 °F55.4 °F (2:50 pm)49 °F (6:50 am)
Humidity92.9 %100 % (5:50 am)86 % (12:50 pm)
Barometer29.86 in29.95 in (5:50 am)29.74 in (5:50 pm)
Wind Speed13.9 mph20.7 mph (5:20 pm)
Weather ElementAverage
Visibility5.3 mi
Wind DirectionESE (101.6 °)

Weather ElementTotal
Precipitation---
Heating Degree Days11.4 (Base 65)
Growing Degree Days3.6 (Base 50)
Averaged from 38 records on October 18, 2013
WEATHER CONDITIONS BREAKOUT
WIND DIRECTION BREAKOUT
WEATHER BY HOUR - OCTOBER 18, 2013
[ °C ]   °F
Local TimeTemperatureDewpointHumidityBarometerVisibilityWind DirectionWind SpeedGust SpeedPrecipitationEventsConditions
3:50 AM50.0 °F50.0 °F98 %ESE (110°)6.9 mph
5:50 AM50.0 °F50.0 °F100 %29.95 in6.2 miEast (90°)9.2 mphPartly Cloudy
6:20 AM50.0 °F50.0 °F100 %29.95 in6.2 miEast (90°)9.2 mphPartly Cloudy
6:50 AM50.0 °F49.0 °F97 %East (100°)10.4 mph
6:50 AM50.0 °F50.0 °F100 %29.92 in6.2 miEast (80°)10.4 mphPartly Cloudy
7:20 AM50.0 °F50.0 °F100 %29.92 in6.2 miEast (90°)10.4 mphPartly Cloudy
7:50 AM51.8 °F50.0 °F94 %29.92 in5.6 miEast (90°)10.4 mphPartly Cloudy
8:20 AM51.8 °F50.0 °F94 %29.95 in5.0 miEast (90°)11.5 mphScattered Clouds
8:50 AM51.8 °F51.8 °F100 %29.95 in5.0 miEast (90°)10.4 mphScattered Clouds
9:20 AM53.6 °F51.8 °F94 %29.95 in5.0 miEast (90°)12.7 mphScattered Clouds
9:50 AM53.0 °F51.0 °F92 %East (100°)13.8 mph
9:50 AM53.6 °F51.8 °F94 %29.92 in5.0 miEast (90°)12.7 mphScattered Clouds
10:20 AM53.6 °F51.8 °F94 %29.92 in5.0 miEast (90°)12.7 mphMostly Cloudy
10:50 AM53.6 °F51.8 °F94 %29.92 in5.0 miEast (90°)13.8 mphMostly Cloudy
11:20 AM53.6 °F51.8 °F94 %29.92 in5.0 miEast (90°)12.7 mphMostly Cloudy
11:50 AM55.4 °F51.8 °F88 %29.92 in5.0 miEast (90°)12.7 mphMostly Cloudy
12:20 PM55.4 °F53.6 °F94 %29.92 in5.0 miEast (90°)10.4 mphMostly Cloudy
12:50 PM56.0 °F53.0 °F86 %ESE (110°)13.8 mph
12:50 PM57.2 °F53.6 °F88 %29.89 in5.0 miEast (90°)13.8 mphMostly Cloudy
1:20 PM57.2 °F53.6 °F88 %29.89 in5.0 miEast (100°)12.7 mphMostly Cloudy
1:50 PM57.2 °F53.6 °F88 %29.89 in5.0 miEast (90°)9.2 mphRainLight Rain
2:20 PM57.2 °F53.6 °F88 %29.89 in5.0 miSE (130°)13.8 mphRainLight Rain
2:50 PM57.2 °F55.4 °F94 %29.86 in2.5 miESE (120°)12.7 mphRainLight Rain
3:20 PM55.4 °F55.4 °F100 %29.83 in4.3 miESE (110°)15.0 mphRainLight Rain
3:50 PM56.0 °F54.0 °F92 %ESE (120°)17.3 mph
3:50 PM57.2 °F55.4 °F94 %29.83 in4.3 miESE (110°)16.1 mphRainLight Rain
4:20 PM55.4 °F55.4 °F100 %29.80 in4.3 miEast (100°)16.1 mphRainLight Rain
4:50 PM57.2 °F55.4 °F94 %29.80 in5.6 miESE (110°)19.6 mphPartly Cloudy
5:20 PM57.2 °F55.4 °F94 %29.77 in5.6 miEast (100°)20.7 mphPartly Cloudy
5:50 PM57.2 °F53.6 °F88 %29.74 in6.2 miESE (110°)18.4 mphPartly Cloudy
6:20 PM57.2 °F53.6 °F88 %29.74 in6.2 miESE (110°)18.4 mphPartly Cloudy
6:50 PM56.0 °F54.0 °F90 %ESE (120°)19.6 mph
6:50 PM57.2 °F53.6 °F88 %29.74 in6.2 miEast (100°)20.7 mphRainLight Rain Showers
7:20 PM57.2 °F53.6 °F88 %29.77 in6.2 miESE (110°)16.1 mphRainLight Rain
7:50 PM57.2 °F53.6 °F88 %29.74 in6.2 miESE (110°)15.0 mphRainLight Rain
8:20 PM57.2 °F53.6 °F88 %29.74 in6.2 miESE (110°)16.1 mphRainLight Rain
8:50 PM57.2 °F53.6 °F88 %29.74 in6.2 miESE (110°)16.1 mphRainLight Rain
9:50 PM56.0 °F54.0 °F92 %SE (130°)16.1 mph
Hourly data recorded from EGNO, located miles away from Blackburn, England







STORIES FROM OUR PARTNERS